Tracking 19827 objects as of 23-Aug-2019
HD Live streaming from Space Station
objects crossing your sky now

BREEZE-KM R/B

Track BREEZE-KM R/B now!
10-day predictions


NORAD ID: 39764
Int'l Code: 2014-028D
Perigee: 1,157.3 km
Apogee: 1,511.7 km
Inclination: 82.4 °
Period: 112.2 minutes
Semi major axis: 7705 km
RCS: Unknown
Launch date: May 23, 2014
Source: Commonwealth of Independent States (former USSR) (CIS)
Launch site: PLESETSK MISSILE AND SPACE COMPLEX (PKMTR)

Note: This is a ROCKET BODY
aabbcc
Your satellite tracking list
Your tracking list is empty




NASA's NSSDC Master Catalog

Two Line Element Set (TLE):
1 39764U 14028D   19233.80423513  .00000033  00000-0  75557-4 0  9997
2 39764  82.4419 133.9804 0229946  89.5995 273.1452 12.83509688245863
Source of the keplerian elements: AFSPC